Location: Newark
(48.4472°N, 1.4892°E)
Time: 14:24:28
(UTC+00:00)

Transit 4A - Pass Details

Date: 22 November 2019
Orbit: 870 x 975 km, 66.8° (Epoch: 13 December)

Event Time Altitude Azimuth Distance (km) Brightness Sun altitude
Exits shadow 05:46:30 11° 323° (NW) 2,465 9.7 -13.8°
Maximum altitude 05:52:09 81° 238° (WSW) 895 7.8 -12.9°
Drops below altitude 10° 05:57:58 10° 152° (SSE) 2,513 10.8 -12.0°
Sets 06:00:25 0° 151° (SSE) 3,445 11.6 -11.6°
